Big Bear Station Historical Data
Daily Summary for March 21, 2017 Units:  English    Metric   Both
« Previous Day
Next Day »
Daily Weekly Monthly Yearly Custom
  High: Low: Average:
Temperature: 57.0 °F 36.5 °F 45.9 °F
Dew Point: 44.5 °F 9.2 °F 32.7 °F
Humidity: 96 % 24 % 64 %
Wind Speed: 10.9 mph 0.0 mph 2.8 mph
Wind Gust: -999.0 mph - -
Wind:- - SSW
Pressure: 30.21 in 30.12 in -
Precipitation: 0.13 in    
Historical Graphs
 
 
Tabular Data for March 21, 2017
Time Temperature Dew Point Pressure Wind Wind Speed Wind Gust Humidity Rainfall Rate (Hourly)
00:06 44.2 °F 16.9 °F 30.19 in NW 4.7 mph -999.0 mph 33 % 0 in
00:21 43.9 °F 22.3 °F 30.19 in NE 1.7 mph -999.0 mph 42 % 0 in
00:37 44.2 °F 14.7 °F 30.19 in NNW 2.2 mph -999.0 mph 30 % 0 in
00:52 44.4 °F 13.3 °F 30.19 in SSE 2.7 mph -999.0 mph 28 % 0 in
01:07 43.9 °F 12.0 °F 30.18 in SE 1.1 mph -999.0 mph 27 % 0 in
01:22 43.9 °F 12.9 °F 30.18 in Calm   -999.0 mph 28 % 0 in
01:37 43.9 °F 13.7 °F 30.18 in SSE 2.2 mph -999.0 mph 29 % 0 in
01:53 44.1 °F 13.0 °F 30.18 in SSE 1.7 mph -999.0 mph 28 % 0 in
02:08 44.4 °F 11.6 °F 30.17 in NW 4.7 mph -999.0 mph 26 % 0 in
02:23 44.6 °F 12.6 °F 30.18 in West 2.7 mph -999.0 mph 27 % 0 in
02:38 44.6 °F 12.6 °F 30.17 in NW 3.2 mph -999.0 mph 27 % 0 in
02:54 44.4 °F 10.7 °F 30.17 in NNE 1.1 mph -999.0 mph 25 % 0 in
03:09 43.7 °F 9.2 °F 30.16 in SSE 2.2 mph -999.0 mph 24 % 0 in
03:24 43.3 °F 9.8 °F 30.17 in South 2.2 mph -999.0 mph 25 % 0 in
03:39 42.6 °F 10.1 °F 30.16 in South 1.7 mph -999.0 mph 26 % 0 in
03:54 41.2 °F 16.2 °F 30.16 in South 2.2 mph -999.0 mph 36 % 0 in
04:10 40.3 °F 16.7 °F 30.17 in South 3.2 mph -999.0 mph 38 % 0 in
04:25 39.0 °F 14.9 °F 30.17 in Calm   -999.0 mph 37 % 0 in
04:40 38.7 °F 13.4 °F 30.17 in Calm   -999.0 mph 35 % 0 in
04:56 38.3 °F 13.7 °F 30.17 in SSE 1.7 mph -999.0 mph 36 % 0 in
05:11 37.2 °F 17.8 °F 30.17 in South 2.2 mph -999.0 mph 45 % 0 in
05:27 37.6 °F 19.2 °F 30.17 in South 2.7 mph -999.0 mph 47 % 0 in
05:42 36.9 °F 19.0 °F 30.17 in South 1.1 mph -999.0 mph 48 % 0 in
05:57 36.5 °F 19.6 °F 30.17 in SE 2.2 mph -999.0 mph 50 % 0 in
06:12 37.0 °F 16.6 °F 30.17 in South 2.7 mph -999.0 mph 43 % 0 in
06:27 37.9 °F 13.9 °F 30.18 in NW 2.2 mph -999.0 mph 37 % 0 in
06:43 38.5 °F 16.2 °F 30.19 in Calm   -999.0 mph 40 % 0 in
06:58 40.3 °F 19.6 °F 30.19 in SSW 1.1 mph -999.0 mph 43 % 0 in
07:13 40.1 °F 23.9 °F 30.19 in South 1.7 mph -999.0 mph 52 % 0 in
07:28 41.0 °F 27.8 °F 30.19 in Calm   -999.0 mph 59 % 0 in
07:43 42.4 °F 29.5 °F 30.19 in Calm   -999.0 mph 60 % 0 in
07:59 45.0 °F 37.2 °F 30.18 in WNW 2.7 mph -999.0 mph 74 % 0 in
08:14 45.0 °F 36.5 °F 30.19 in NNW 1.1 mph -999.0 mph 72 % 0 in
08:29 46.0 °F 36.4 °F 30.19 in SW 1.1 mph -999.0 mph 69 % 0 in
08:44 46.8 °F 37.5 °F 30.20 in SW 2.2 mph -999.0 mph 70 % 0 in
08:59 47.5 °F 37.8 °F 30.19 in NW 4.2 mph -999.0 mph 69 % 0 in
09:15 47.7 °F 37.3 °F 30.20 in SSE 2.2 mph -999.0 mph 67 % 0 in
09:30 48.4 °F 37.6 °F 30.20 in NW 4.2 mph -999.0 mph 66 % 0 in
09:45 48.7 °F 37.5 °F 30.20 in West 2.2 mph -999.0 mph 65 % 0 in
10:00 49.3 °F 38.0 °F 30.20 in North 6.3 mph -999.0 mph 65 % 0 in
10:16 49.8 °F 38.1 °F 30.20 in Calm   -999.0 mph 64 % 0 in
10:31 50.7 °F 38.6 °F 30.20 in North 3.7 mph -999.0 mph 63 % 0 in
10:46 51.1 °F 38.5 °F 30.21 in NW 5.8 mph -999.0 mph 62 % 0 in
11:01 52.5 °F 38.6 °F 30.20 in NE 5.3 mph -999.0 mph 59 % 0 in
11:16 54.1 °F 39.2 °F 30.20 in North 5.8 mph -999.0 mph 57 % 0 in
11:32 55.0 °F 39.6 °F 30.20 in South 2.2 mph -999.0 mph 56 % 0 in
11:47 56.5 °F 40.5 °F 30.20 in NW 3.7 mph -999.0 mph 55 % 0 in
12:02 55.9 °F 40.0 °F 30.20 in NE 1.7 mph -999.0 mph 55 % 0 in
12:17 57.0 °F 40.5 °F 30.20 in NW 4.7 mph -999.0 mph 54 % 0 in
12:32 56.1 °F 41.5 °F 30.20 in South 2.2 mph -999.0 mph 58 % 0 in
12:48 56.1 °F 42.4 °F 30.20 in NW 7.3 mph -999.0 mph 60 % 0 in
13:03 55.2 °F 42.8 °F 30.20 in South 2.7 mph -999.0 mph 63 % 0 in
13:18 54.9 °F 43.0 °F 30.19 in ESE 4.2 mph -999.0 mph 64 % 0 in
13:34 53.8 °F 42.7 °F 30.19 in ESE 10.9 mph -999.0 mph 66 % 0 in
13:49 54.1 °F 42.2 °F 30.19 in SE 6.8 mph -999.0 mph 64 % 0 in
14:04 52.9 °F 41.9 °F 30.19 in NW 4.2 mph -999.0 mph 66 % 0 in
14:20 54.5 °F 42.2 °F 30.19 in NNW 5.8 mph -999.0 mph 63 % 0 in
14:35 51.4 °F 42.3 °F 30.19 in WSW 3.2 mph -999.0 mph 71 % 0 in
14:51 51.6 °F 42.9 °F 30.19 in West 5.3 mph -999.0 mph 72 % 0 in
15:06 49.8 °F 43.9 °F 30.19 in WSW 2.7 mph -999.0 mph 80 % 0 in
15:21 49.1 °F 44.5 °F 30.18 in SSE 2.7 mph -999.0 mph 84 % 0 in
15:36 50.9 °F 43.6 °F 30.18 in North 1.7 mph -999.0 mph 76 % 0 in
15:51 50.7 °F 42.4 °F 30.18 in SW 2.2 mph -999.0 mph 73 % 0 in
16:07 52.0 °F 42.9 °F 30.17 in SSE 4.7 mph -999.0 mph 71 % 0 in
16:22 51.3 °F 42.6 °F 30.17 in East 2.7 mph -999.0 mph 72 % 0 in
16:37 51.3 °F 42.6 °F 30.17 in SE 2.7 mph -999.0 mph 72 % 0 in
16:52 49.8 °F 42.2 °F 30.15 in SW 2.7 mph -999.0 mph 75 % 0 in
17:07 48.2 °F 42.0 °F 30.15 in NNW 2.7 mph -999.0 mph 79 % 0 in
17:23 46.4 °F 41.5 °F 30.15 in SSW 2.2 mph -999.0 mph 83 % 0 in
17:38 46.4 °F 41.8 °F 30.15 in NE 3.7 mph -999.0 mph 84 % 0 in
17:53 44.8 °F 42.0 °F 30.15 in ESE 2.7 mph -999.0 mph 90 % 0 in
18:08 44.2 °F 41.7 °F 30.15 in South 4.7 mph -999.0 mph 91 % 0 in
18:23 44.1 °F 41.6 °F 30.15 in South 1.7 mph -999.0 mph 91 % 0 in
18:39 44.1 °F 41.9 °F 30.14 in Calm   -999.0 mph 92 % 0 in
18:54 43.9 °F 42.0 °F 30.14 in SSE 7.3 mph -999.0 mph 93 % 0 in
19:09 43.9 °F 42.3 °F 30.13 in NW 4.7 mph -999.0 mph 94 % 0 in
19:24 43.9 °F 42.6 °F 30.14 in SE 1.7 mph -999.0 mph 95 % 0 in
19:39 43.7 °F 42.4 °F 30.14 in South 1.7 mph -999.0 mph 95 % 0 in
19:55 43.5 °F 42.2 °F 30.14 in SSE 2.2 mph -999.0 mph 95 % 0 in
20:25 43.3 °F 42.0 °F 30.14 in Calm   -999.0 mph 95 % 0 in
20:40 43.3 °F 42.2 °F 30.15 in SSW 3.2 mph -999.0 mph 96 % 0 in
20:56 43.0 °F 41.7 °F 30.14 in South 3.2 mph -999.0 mph 95 % 0 in
21:11 43.0 °F 41.7 °F 30.14 in SSE 1.7 mph -999.0 mph 95 % 0 in
21:26 42.8 °F 41.5 °F 30.14 in SW 1.7 mph -999.0 mph 95 % 0 in
21:42 42.8 °F 41.7 °F 30.14 in ENE 2.2 mph -999.0 mph 96 % 0 in
21:57 42.8 °F 41.7 °F 30.14 in ESE 2.7 mph -999.0 mph 96 % 0 in
22:12 42.6 °F 41.3 °F 30.14 in SSW 3.2 mph -999.0 mph 95 % 0 in
22:27 42.6 °F 41.0 °F 30.13 in SSE 1.1 mph -999.0 mph 94 % 0 in
22:43 42.4 °F 40.8 °F 30.13 in South 4.2 mph -999.0 mph 94 % 0 in
22:58 42.3 °F 40.7 °F 30.12 in SSW 3.2 mph -999.0 mph 94 % 0 in
23:13 42.1 °F 40.2 °F 30.12 in ESE 1.1 mph -999.0 mph 93 % 0 in
23:29 42.1 °F 40.8 °F 30.12 in WNW 2.7 mph -999.0 mph 95 % 0 in
23:44 42.1 °F 41.0 °F 30.12 in South 2.7 mph -999.0 mph 96 % 0 in
23:59 42.1 °F 41.0 °F 30.12 in SSW 3.2 mph -999.0 mph 96 % 0 in
Big Bear CA Weather
Compliments of Weather Underground - 1.5 mb